EW7584 Weather Reports


time (UTC)temp
C
wind
direction
speed
KPH
gust
KPH
rain 1hr
cm
rain 24hr
cm
rain mn
cm
humidity
%
barometer
mb
20260505093039 6 73 0.0 0.0 0.00 0.00 0.00 80 919.8
20260505091537 8 75 0.0 0.0 0.00 0.00 0.00 74 919.8
20260505090033 8 75 0.0 0.0 0.00 0.00 0.00 75 919.8
20260505084530 9 75 0.0 0.0 0.00 0.00 0.00 71 919.7
20260505083026 9 75 0.0 0.0 0.00 0.00 0.00 69 919.6
20260505081521 10 75 0.0 0.0 0.00 0.00 0.00 66 919.6
20260505080022 11 75 0.0 0.0 0.00 0.00 0.00 65 919.5
20260505074517 11 75 0.0 3.2 0.00 0.00 0.00 62 919.5
20260505073013 11 75 0.0 1.6 0.00 0.00 0.00 64 919.4
20260505071526 12 75 0.0 3.2 0.00 0.00 0.00 59 919.3
20260505070008 12 71 3.2 4.8 0.00 0.00 0.00 59 919.3
20260505064508 13 68 0.0 4.8 0.00 0.00 0.00 56 919.2
20260505063007 12 60 0.0 3.2 0.00 0.00 0.00 59 919.1
20260505061505 13 59 0.0 1.6 0.00 0.00 0.00 57 919.0
20260505060016 15 61 4.8 9.7 0.00 0.00 0.00 51 918.9
20260505054506 13 42 4.8 9.7 0.00 0.00 0.00 58 918.9
20260505053004 14 32 0.0 8.0 0.00 0.00 0.00 55 918.8
20260505051608 13 9 8.0 11.3 0.00 0.00 0.00 59 918.7
20260505041501 15 4 0.0 0.0 0.00 0.00 0.00 51 918.4
20260505040001 16 4 0.0 0.0 0.00 0.00 0.00 48 918.2
20260505034501 16 4 0.0 1.6 0.00 0.00 0.00 48 918.1
20260505033059 16 358 0.0 0.0 0.00 0.00 0.00 50 917.9
20260505031601 17 358 0.0 1.6 0.00 0.00 0.00 49 917.8
20260505030056 18 358 0.0 0.0 0.00 0.00 0.00 45 917.7
20260505024604 20 358 0.0 1.6 0.00 0.00 0.00 42 917.6
20260505023055 21 358 0.0 1.6 0.00 0.00 0.00 41 917.5
20260505021552 21 33 0.0 1.6 0.00 0.00 0.00 41 917.5
20260505020050 22 33 0.0 3.2 0.00 0.00 0.00 37 917.5
20260505014549 22 33 1.6 3.2 0.00 0.00 0.00 36 917.4
20260505013100 22 325 1.6 9.7 0.00 0.00 0.00 36 917.4
20260505011547 22 340 4.8 11.3 0.00 0.00 0.00 35 917.5
20260505010051 23 326 6.4 12.9 0.00 0.00 0.00 34 917.6
20260505004543 23 325 6.4 9.7 0.00 0.00 0.00 34 917.6
20260505003041 23 328 6.4 11.3 0.00 0.00 0.00 33 917.6
20260505001540 23 323 3.2 12.9 0.00 0.00 0.00 34 917.7
20260505000052 23 311 6.4 14.5 0.00 0.00 0.00 34 917.6
20260504234538 24 271 8.0 22.5 0.00 0.00 0.00 35 917.6
20260504233038 24 300 8.0 16.1 0.00 0.00 0.00 34 917.7
20260504231533 24 315 4.8 14.5 0.00 0.00 0.00 36 917.7
20260504230032 24 302 4.8 20.9 0.00 0.00 0.00 38 917.7
20260504224531 24 304 6.4 14.5 0.00 0.00 0.00 36 917.7
20260504223029 24 276 4.8 16.1 0.00 0.00 0.00 35 917.9
20260504221529 23 321 6.4 16.1 0.00 0.00 0.00 37 917.9
20260504220039 25 287 11.3 20.9 0.00 0.00 0.00 32 917.9
20260504214527 24 233 6.4 14.5 0.00 0.00 0.00 34 918.0
20260504213022 23 281 11.3 20.9 0.00 0.00 0.00 32 918.0
20260504211527 23 284 9.7 19.3 0.00 0.00 0.00 38 918.1
20260504210017 23 264 6.4 12.9 0.00 0.00 0.00 35 918.2
20260504204518 23 305 12.9 30.6 0.00 0.00 0.00 35 918.4
20260504203014 23 316 4.8 12.9 0.00 0.00 0.00 35 918.5
20260504201512 23 328 6.4 16.1 0.00 0.00 0.00 31 918.5
20260504200012 23 288 3.2 11.3 0.00 0.00 0.00 35 918.5
20260504194510 23 299 0.0 8.0 0.00 0.00 0.00 39 918.6
20260504193016 23 284 3.2 11.3 0.00 0.00 0.00 36 918.6
20260504191508 22 277 0.0 8.0 0.00 0.00 0.00 38 918.7
20260504190009 22 281 1.6 6.4 0.00 0.00 0.00 40 918.8
20260504184506 22 253 0.0 11.3 0.00 0.00 0.00 40 918.9
20260504183004 23 120 0.0 3.2 0.00 0.00 0.00 38 918.8
20260504181502 21 285 0.0 4.8 0.00 0.00 0.00 43 919.0
20260504180100 21 281 0.0 3.2 0.00 0.00 0.00 41 919.0
20260504174559 22 75 1.6 6.4 0.00 0.00 0.00 42 919.1
20260504173057 21 243 0.0 3.2 0.00 0.00 0.00 42 919.1
20260504171557 21 72 6.4 12.9 0.00 0.00 0.00 43 919.1